Cheboygan, MI

12:42 AM EDT on August 23, 2017 (GMT -0400)
Cheboygan

Weather History for KSLH - October, 2013

Change the Weather History Date:

Tuesday, October 22, 2013

  Actual Average (KMCD) Record (KMCD)
Temperature  
Mean Temperature 40 °F -  
Max Temperature 46 °F 48 °F 67 °F (1979)
Min Temperature 33 °F 38 °F 28 °F (1997)
Degree Days  
Heating Degree Days 26    
Moisture  
Dew Point 32 °F    
Average Humidity 79    
Maximum Humidity 94    
Minimum Humidity 57    
Precipitation  
Precipitation 0.00 in - - ()
Sea Level Pressure  
Sea Level Pressure 29.73 in    
Wind  
Wind Speed 9 mph (West)    
Max Wind Speed 22 mph    
Max Gust Speed 31 mph    
Visibility 8 miles    
Events Rain , Snow    
Averages and records for this station are not official NWS values.
T = Trace of Precipitation, MM = Missing Value Source: NWS Daily Summary

Daily Weather History Graph

Daily Weather History Graph

Search for Another Location

Airport or City:

Trip Planner

Search our weather history database for the weather conditions in past years. The results will help you decide how hot, cold, wet, or windy it might be!

Date:

Astronomy

Oct. 22, 2013 Rise Set
Actual Time 8:04 AM EDT 6:39 PM EDT
Civil Twilight 7:33 AM EDT 7:10 PM EDT
Nautical Twilight 6:59 AM EDT 7:44 PM EDT
Astronomical Twilight 6:24 AM EDT 8:19 PM EDT
Moon 9:11 PM EDT (10/22) 11:39 AM EDT (10/22)
Length of Visible Light 11h 36m
Length of Day
10h 35m
Waning Gibbous, 87% of the Moon is Illuminated
Oct 22
Waning Gibbous
Oct 26
Last Quarter
Nov 3
New
Nov 10
First Quarter
Nov 17
Full

Hourly Weather History & Observations

Time (EDT) Temp. Windchill Dew Point Humidity Pressure Visibility Wind Dir Wind Speed Gust Speed Precip Events Conditions
12:16 AM 34.0 °F 28.0 °F 32.0 °F 92% 29.70 in 10.0 mi SW 6.9 mph - N/A   Scattered Clouds
12:36 AM 34.0 °F 27.2 °F 31.6 °F 91% 29.70 in 2.5 mi SW 8.1 mph 18.4 mph N/A Snow Light Snow
12:56 AM 33.6 °F 26.8 °F 31.6 °F 92% 29.70 in 1.2 mi WSW 8.1 mph 16.1 mph N/A Snow Snow
1:16 AM 33.4 °F 29.1 °F 31.6 °F 93% 29.69 in 2.0 mi SW 4.6 mph - N/A Snow Light Snow
1:35 AM 33.8 °F 27.0 °F 31.8 °F 92% 29.69 in 7.0 mi SSW 8.1 mph - N/A Snow Light Snow
1:56 AM 33.8 °F 27.0 °F 31.8 °F 92% 29.69 in 7.0 mi SSW 8.1 mph - N/A Snow Light Snow
2:16 AM 34.0 °F 28.0 °F 31.3 °F 90% 29.68 in 10.0 mi SSW 6.9 mph - N/A   Mostly Cloudy
2:36 AM 34.5 °F 27.9 °F 30.4 °F 85% 29.68 in 10.0 mi SSW 8.1 mph - N/A   Scattered Clouds
2:56 AM 34.2 °F 28.2 °F 30.6 °F 87% 29.68 in 10.0 mi SSW 6.9 mph - N/A   Scattered Clouds
3:16 AM 34.0 °F 28.0 °F 31.1 °F 89% 29.68 in 7.0 mi South 6.9 mph - N/A Snow Light Snow
3:36 AM 33.8 °F 27.0 °F 31.8 °F 92% 29.67 in 10.0 mi South 8.1 mph - N/A Snow Light Snow
3:56 AM 33.8 °F 27.0 °F 32.0 °F 93% 29.66 in 4.0 mi South 8.1 mph - N/A Snow Light Snow
4:16 AM 33.8 °F 27.0 °F 32.0 °F 93% 29.65 in 10.0 mi South 8.1 mph - N/A   Scattered Clouds
4:36 AM 34.0 °F 27.2 °F 32.0 °F 92% 29.65 in 3.0 mi SSW 8.1 mph - N/A Snow Light Snow
4:56 AM 33.4 °F 26.6 °F 32.0 °F 94% 29.64 in 1.2 mi South 8.1 mph - N/A Snow Light Snow
5:15 AM 33.4 °F 30.4 °F 32.0 °F 94% 29.63 in 1.8 mi South 3.5 mph - N/A Snow Light Snow
5:36 AM 33.4 °F 29.1 °F 32.0 °F 94% 29.63 in 1.8 mi SSW 4.6 mph - N/A Snow Light Snow
5:55 AM 33.4 °F 29.1 °F 32.0 °F 94% 29.63 in 5.0 mi SSW 4.6 mph - N/A Snow Light Snow
6:16 AM 33.8 °F 30.8 °F 32.2 °F 94% 29.63 in 10.0 mi SW 3.5 mph - N/A   Overcast
6:36 AM 33.8 °F 30.8 °F 32.2 °F 94% 29.63 in 5.0 mi SSW 3.5 mph - N/A Snow Light Snow
6:55 AM 33.8 °F - 32.2 °F 94% 29.63 in 7.0 mi Calm Calm - N/A   Overcast
7:16 AM 35.2 °F 30.3 °F 33.1 °F 92% 29.63 in 10.0 mi WSW 5.8 mph - N/A   Mostly Cloudy
7:36 AM 35.4 °F 31.5 °F 32.9 °F 91% 29.63 in 10.0 mi WSW 4.6 mph - N/A   Mostly Cloudy
7:56 AM 35.6 °F 29.2 °F 32.5 °F 89% 29.63 in 7.0 mi SW 8.1 mph - N/A Rain Light Rain
8:16 AM 36.1 °F 29.9 °F 33.1 °F 89% 29.64 in 10.0 mi WSW 8.1 mph - N/A   Mostly Cloudy
8:36 AM 37.4 °F 29.8 °F 33.8 °F 87% 29.65 in 7.0 mi West 11.5 mph - N/A   Mostly Cloudy
8:56 AM 37.9 °F 30.9 °F 34.0 °F 86% 29.66 in 10.0 mi West 10.4 mph 16.1 mph N/A   Mostly Cloudy
9:16 AM 38.8 °F 31.6 °F 34.3 °F 84% 29.68 in 10.0 mi West 11.5 mph 18.4 mph N/A   Scattered Clouds
9:35 AM 38.8 °F 30.8 °F 34.3 °F 84% 29.68 in 5.0 mi West 13.8 mph 20.7 mph N/A   Haze
9:56 AM 38.8 °F 32.1 °F 35.1 °F 86% 29.69 in 5.0 mi West 10.4 mph - N/A   Mostly Cloudy
10:15 AM 40.1 °F 33.2 °F 36.0 °F 85% 29.69 in 10.0 mi West 11.5 mph 17.3 mph N/A Rain Light Rain
10:36 AM 41.0 °F 33.9 °F 35.6 °F 81% 29.69 in 10.0 mi West 12.7 mph 24.2 mph N/A   Mostly Cloudy
10:56 AM 41.7 °F 33.7 °F 36.0 °F 80% 29.70 in 10.0 mi West 16.1 mph 27.6 mph N/A   Mostly Cloudy
11:16 AM 42.6 °F 34.3 °F 35.4 °F 76% 29.70 in 10.0 mi WNW 18.4 mph 24.2 mph N/A   Mostly Cloudy
11:36 AM 42.1 °F 33.1 °F 35.4 °F 77% 29.71 in 7.0 mi WNW 20.7 mph 31.1 mph N/A   Mostly Cloudy
11:56 AM 42.8 °F 34.5 °F 34.2 °F 72% 29.72 in 10.0 mi WNW 18.4 mph 25.3 mph N/A   Mostly Cloudy
12:16 PM 44.2 °F 35.7 °F 33.8 °F 67% 29.73 in 10.0 mi West 21.9 mph 29.9 mph N/A   Mostly Cloudy
12:36 PM 44.6 °F 36.6 °F 33.1 °F 64% 29.74 in 10.0 mi NW 19.6 mph 28.8 mph N/A   Scattered Clouds
12:56 PM 45.5 °F 37.8 °F 32.5 °F 61% 29.74 in 10.0 mi WNW 19.6 mph 28.8 mph N/A   Scattered Clouds
1:16 PM 45.7 °F 38.6 °F 32.0 °F 59% 29.75 in 10.0 mi WNW 17.3 mph 24.2 mph N/A   Mostly Cloudy
1:36 PM 45.1 °F 36.9 °F 31.8 °F 60% 29.75 in 10.0 mi NW 21.9 mph 28.8 mph N/A   Scattered Clouds
1:56 PM 45.3 °F 38.4 °F 31.6 °F 59% 29.75 in 10.0 mi WNW 16.1 mph 24.2 mph N/A   Scattered Clouds
2:16 PM 45.9 °F 38.8 °F 31.5 °F 57% 29.75 in 10.0 mi NW 17.3 mph 26.5 mph N/A   Mostly Cloudy
2:35 PM 44.4 °F 37.9 °F 30.9 °F 59% 29.76 in 10.0 mi WNW 13.8 mph 20.7 mph N/A   Mostly Cloudy
2:56 PM 46.8 °F - 32.4 °F 57% 29.75 in 10.0 mi West 13.8 mph 23.0 mph N/A   Scattered Clouds
3:15 PM 44.8 °F 38.0 °F 32.7 °F 63% 29.76 in 5.0 mi NW 15.0 mph 29.9 mph N/A Rain Light Rain
3:36 PM 44.1 °F 37.4 °F 34.7 °F 70% 29.77 in 10.0 mi WNW 13.8 mph 18.4 mph N/A   Scattered Clouds
3:56 PM 44.2 °F 38.4 °F 32.9 °F 64% 29.77 in 10.0 mi WNW 11.5 mph 16.1 mph N/A   Scattered Clouds
4:15 PM 44.6 °F 37.4 °F 32.2 °F 62% 29.77 in 10.0 mi West 16.1 mph - N/A   Mostly Cloudy
4:36 PM 46.4 °F 40.1 °F 34.3 °F 63% 29.78 in 10.0 mi NW 15.0 mph 21.9 mph N/A   Mostly Cloudy
4:56 PM 45.1 °F 39.5 °F 33.8 °F 65% 29.79 in 10.0 mi NNW 11.5 mph 23.0 mph N/A   Mostly Cloudy
5:16 PM 44.2 °F 37.6 °F 34.2 °F 68% 29.79 in 10.0 mi NW 13.8 mph 18.4 mph N/A   Mostly Cloudy
5:36 PM 43.0 °F 35.7 °F 32.9 °F 68% 29.80 in 10.0 mi NW 15.0 mph 20.7 mph N/A   Mostly Cloudy
5:56 PM 41.4 °F 35.2 °F 32.0 °F 69% 29.81 in 10.0 mi WNW 10.4 mph - N/A   Scattered Clouds
6:16 PM 40.3 °F 33.0 °F 30.7 °F 69% 29.82 in 10.0 mi WNW 12.7 mph - N/A   Clear
6:36 PM 40.1 °F 33.6 °F 28.4 °F 63% 29.82 in 10.0 mi WNW 10.4 mph - N/A   Clear
6:56 PM 39.6 °F 32.5 °F 29.7 °F 68% 29.82 in 10.0 mi WNW 11.5 mph - N/A   Clear
7:16 PM 39.2 °F 33.0 °F 29.3 °F 68% 29.83 in 10.0 mi WNW 9.2 mph - N/A   Clear
7:36 PM 38.1 °F 31.7 °F 29.7 °F 72% 29.83 in 10.0 mi WNW 9.2 mph - N/A   Clear
7:55 PM 38.3 °F 31.9 °F 29.8 °F 72% 29.84 in 10.0 mi NW 9.2 mph - N/A   Clear
8:16 PM 38.3 °F 31.9 °F 30.6 °F 74% 29.84 in 10.0 mi NW 9.2 mph - N/A   Scattered Clouds
8:36 PM 37.6 °F 31.6 °F 30.9 °F 77% 29.84 in 10.0 mi NW 8.1 mph - N/A   Scattered Clouds
8:55 PM 36.9 °F 30.7 °F 30.7 °F 79% 29.84 in 10.0 mi NW 8.1 mph - N/A   Clear
9:16 PM 37.4 °F 28.9 °F 30.2 °F 75% 29.84 in 10.0 mi NW 13.8 mph 19.6 mph N/A   Scattered Clouds
9:36 PM 37.0 °F 31.6 °F 30.7 °F 78% 29.84 in 10.0 mi WNW 6.9 mph - N/A   Scattered Clouds
9:56 PM 37.0 °F 30.4 °F 30.2 °F 76% 29.85 in 10.0 mi NW 9.2 mph - N/A   Clear
10:16 PM 36.9 °F 31.4 °F 30.2 °F 77% 29.85 in 10.0 mi WNW 6.9 mph - N/A   Clear
10:36 PM 36.1 °F 30.6 °F 29.8 °F 78% 29.85 in 10.0 mi WNW 6.9 mph - N/A   Clear
10:56 PM 35.4 °F 29.7 °F 29.8 °F 80% 29.85 in 10.0 mi West 6.9 mph - N/A   Clear
11:16 PM 35.8 °F 29.4 °F 30.6 °F 81% 29.85 in 10.0 mi WNW 8.1 mph - N/A   Clear
11:35 PM 36.0 °F 29.0 °F 30.0 °F 79% 29.85 in 10.0 mi WNW 9.2 mph - N/A   Clear
11:56 PM 35.6 °F 29.2 °F 29.8 °F 80% 29.85 in 10.0 mi WNW 8.1 mph - N/A   Scattered Clouds